TAP1276 LOWW-LPPT

Flight info

Callsign TAP1276
Flight time 3h 5m
Altitude 34000
Route OSPEN DCT ABRUK DCT SETAL DCT DETSA/N0452F370 DCT GEKBA DCT VAMTU DCT KOLON DCT GANGU DCT PADKO DCT DIVKO DCT NILDU DCT NENDA DCT BCN DCT ANTON DCT XIKEN DCT OSLAP DCT SALAS DCT RAMON DCT NEXAS DCT DISVU DCT ADUXO N975 CJN/N0358F130 N975 PALIO DCT AKOKI DCT GOTOR DCT TLD DCT NATPA DCT MELON DCT CCS DCT ELVAR DCT UPULO
Aircraft A320/M-SDE3FGHIRWY/LB1

Departure

Time 2026-04-21 15:12
Airport Vienna International Airport (LOWW)

Arrival

Time 2026-04-21 18:17
Airport Lisbon Humberto Delgado Airport (LPPT)
Time Latitude Longitude Altitude Speed Heading
2026-04-21 14:30 48.11726 16.56736 609 ft 0 kts 25°
2026-04-21 14:45 48.11709 16.56723 618 ft 4 kts 30°
2026-04-21 14:46 48.11686 16.56701 619 ft 4 kts 41°
2026-04-21 14:46 48.11669 16.56672 614 ft 4 kts 71°
2026-04-21 14:46 48.11668 16.56646 619 ft 1 kts 116°
2026-04-21 14:46 48.11670 16.56640 620 ft 0 kts 116°
2026-04-21 15:08 48.11670 16.56641 621 ft 0 kts 116°
2026-04-21 15:08 48.11652 16.56695 620 ft 8 kts 116°
2026-04-21 15:08 48.11630 16.56760 620 ft 6 kts 116°
2026-04-21 15:08 48.11606 16.56836 613 ft 10 kts 116°
2026-04-21 15:09 48.11577 16.56924 612 ft 12 kts 116°
2026-04-21 15:09 48.11532 16.57063 621 ft 15 kts 116°
2026-04-21 15:09 48.11485 16.57206 624 ft 16 kts 116°
2026-04-21 15:09 48.11435 16.57358 614 ft 16 kts 120°
2026-04-21 15:10 48.11338 16.57349 623 ft 15 kts 205°
2026-04-21 15:10 48.11241 16.57279 622 ft 15 kts 206°
2026-04-21 15:10 48.11140 16.57206 620 ft 16 kts 206°
2026-04-21 15:10 48.11061 16.57101 613 ft 16 kts 270°
2026-04-21 15:11 48.11107 16.56943 621 ft 18 kts 296°
2026-04-21 15:11 48.11215 16.56613 617 ft 68 kts 296°
2026-04-21 15:11 48.11547 16.55591 618 ft 146 kts 296°
2026-04-21 15:11 48.12050 16.54028 1034 ft 172 kts 291°
2026-04-21 15:12 48.12067 16.52267 1949 ft 177 kts 247°
2026-04-21 15:12 48.11201 16.50808 2528 ft 205 kts 217°
2026-04-21 15:12 48.09954 16.49498 2876 ft 232 kts 215°
2026-04-21 15:12 48.08556 16.48052 3324 ft 255 kts 215°
2026-04-21 15:13 48.07087 16.46464 4083 ft 263 kts 218°
2026-04-21 15:13 48.05668 16.44714 4996 ft 266 kts 221°
2026-04-21 15:13 48.04280 16.42871 5896 ft 268 kts 222°
2026-04-21 15:13 48.02872 16.40987 6726 ft 273 kts 222°
2026-04-21 15:14 48.01444 16.39091 7587 ft 277 kts 222°
2026-04-21 15:14 47.99989 16.37174 8421 ft 280 kts 222°
2026-04-21 15:14 47.98512 16.35236 9240 ft 284 kts 221°
2026-04-21 15:14 47.97044 16.33241 10035 ft 287 kts 227°
2026-04-21 15:15 47.95863 16.30870 10774 ft 292 kts 241°
2026-04-21 15:15 47.95017 16.27998 11062 ft 314 kts 251°
2026-04-21 15:15 47.94250 16.24810 11256 ft 338 kts 251°
2026-04-21 15:15 47.93436 16.21431 11644 ft 352 kts 251°
2026-04-21 15:16 47.92596 16.17967 12282 ft 357 kts 250°
2026-04-21 15:16 47.91729 16.14424 12974 ft 361 kts 250°
2026-04-21 15:16 47.90867 16.10925 13641 ft 365 kts 250°
2026-04-21 15:16 47.89983 16.07362 14300 ft 368 kts 250°
2026-04-21 15:17 47.89088 16.03767 14943 ft 372 kts 250°
2026-04-21 15:17 47.88135 16.00162 15551 ft 376 kts 245°
2026-04-21 15:17 47.86796 15.96803 16140 ft 380 kts 234°
2026-04-21 15:17 47.85030 15.93857 16716 ft 383 kts 223°
2026-04-21 15:18 47.82936 15.91371 17280 ft 387 kts 217°
2026-04-21 15:18 47.80781 15.88942 17837 ft 390 kts 217°
2026-04-21 15:18 47.78611 15.86494 18369 ft 393 kts 217°
2026-04-21 15:18 47.76428 15.84028 18887 ft 396 kts 217°
2026-04-21 15:19 47.74226 15.81543 19388 ft 399 kts 217°
2026-04-21 15:19 47.72006 15.79043 19900 ft 402 kts 217°
2026-04-21 15:19 47.69769 15.76524 20370 ft 405 kts 217°
2026-04-21 15:19 47.67517 15.73989 20852 ft 407 kts 217°
2026-04-21 15:20 47.65252 15.71441 21314 ft 410 kts 217°
2026-04-21 15:20 47.62965 15.68871 21765 ft 413 kts 217°
2026-04-21 15:20 47.60667 15.66296 22194 ft 416 kts 217°
2026-04-21 15:20 47.58349 15.63703 22627 ft 418 kts 217°
2026-04-21 15:21 47.56048 15.61129 23045 ft 421 kts 217°
2026-04-21 15:21 47.53701 15.58508 23453 ft 424 kts 217°
2026-04-21 15:21 47.51434 15.55710 23834 ft 426 kts 225°
2026-04-21 15:21 47.49505 15.52388 24212 ft 428 kts 235°
2026-04-21 15:22 47.47987 15.48599 24573 ft 430 kts 245°
2026-04-21 15:22 47.46928 15.44464 24938 ft 431 kts 254°
2026-04-21 15:22 47.46109 15.40184 25292 ft 434 kts 255°
2026-04-21 15:22 47.45277 15.35886 25647 ft 436 kts 254°
2026-04-21 15:23 47.44431 15.31563 25994 ft 438 kts 254°
2026-04-21 15:23 47.43576 15.27227 26337 ft 441 kts 254°
2026-04-21 15:23 47.42713 15.22864 26667 ft 443 kts 254°
2026-04-21 15:23 47.41849 15.18491 26987 ft 445 kts 254°
2026-04-21 15:24 47.40980 15.14090 27293 ft 447 kts 254°
2026-04-21 15:24 47.40106 15.09680 27586 ft 449 kts 254°
2026-04-21 15:24 47.39225 15.05238 27872 ft 451 kts 254°
2026-04-21 15:24 47.38340 15.00780 28153 ft 453 kts 254°
2026-04-21 15:25 47.37453 14.96311 28440 ft 455 kts 254°
2026-04-21 15:25 47.36571 14.91879 28711 ft 457 kts 254°
2026-04-21 15:25 47.35675 14.87379 28973 ft 459 kts 254°
2026-04-21 15:25 47.34771 14.82854 29267 ft 460 kts 254°
2026-04-21 15:26 47.33866 14.78337 29635 ft 459 kts 254°
2026-04-21 15:26 47.32959 14.73840 29997 ft 458 kts 253°
2026-04-21 15:26 47.32051 14.69348 30348 ft 457 kts 253°
2026-04-21 15:26 47.31143 14.64864 30695 ft 456 kts 253°
2026-04-21 15:27 47.30236 14.60381 31037 ft 455 kts 253°
2026-04-21 15:27 47.29326 14.55907 31376 ft 455 kts 253°
2026-04-21 15:27 47.28420 14.51450 31705 ft 454 kts 253°
2026-04-21 15:27 47.27510 14.46987 32033 ft 453 kts 253°
2026-04-21 15:28 47.26599 14.42538 32351 ft 453 kts 253°
2026-04-21 15:28 47.25690 14.38102 32678 ft 452 kts 253°
2026-04-21 15:28 47.24781 14.33674 32999 ft 452 kts 253°
2026-04-21 15:28 47.23872 14.29258 33306 ft 451 kts 253°
2026-04-21 15:29 47.22964 14.24846 33615 ft 450 kts 253°
2026-04-21 15:29 47.22066 14.20492 33916 ft 450 kts 253°
2026-04-21 15:29 47.21155 14.16089 34164 ft 450 kts 253°
2026-04-21 15:29 47.20237 14.11680 34216 ft 451 kts 253°
2026-04-21 15:30 47.18391 14.02862 34228 ft 451 kts 253°
2026-04-21 15:30 47.16544 13.94041 34223 ft 451 kts 253°
2026-04-21 15:31 47.14691 13.85222 34226 ft 451 kts 253°
2026-04-21 15:31 47.12831 13.76412 34226 ft 451 kts 253°
2026-04-21 15:32 47.10963 13.67609 34227 ft 451 kts 253°
2026-04-21 15:32 47.09094 13.58877 34217 ft 452 kts 253°
2026-04-21 15:33 47.07210 13.50081 34222 ft 452 kts 253°
2026-04-21 15:33 47.05324 13.41291 34220 ft 452 kts 253°
2026-04-21 15:34 47.03426 13.32518 34223 ft 452 kts 252°
2026-04-21 15:34 47.01519 13.23738 34219 ft 452 kts 252°
2026-04-21 15:35 46.99605 13.14963 34223 ft 452 kts 252°
2026-04-21 15:35 46.97688 13.06199 34230 ft 452 kts 252°
2026-04-21 15:36 46.95774 12.97442 34231 ft 452 kts 252°
2026-04-21 15:36 46.93858 12.88748 34225 ft 452 kts 252°
2026-04-21 15:37 46.91920 12.80007 34222 ft 452 kts 252°
2026-04-21 15:37 46.89974 12.71271 34221 ft 452 kts 252°
2026-04-21 15:38 46.88012 12.62534 34229 ft 452 kts 252°
2026-04-21 15:38 46.86053 12.53800 34231 ft 452 kts 252°
2026-04-21 15:39 46.84090 12.45088 34226 ft 452 kts 252°
2026-04-21 15:39 46.82119 12.36373 34230 ft 452 kts 252°
2026-04-21 15:40 46.79831 12.27842 34231 ft 452 kts 241°
2026-04-21 15:40 46.76211 12.20345 34234 ft 452 kts 233°
2026-04-21 15:41 46.72429 12.13091 34227 ft 452 kts 233°
2026-04-21 15:41 46.68623 12.05778 34222 ft 452 kts 233°
2026-04-21 15:42 46.64810 11.98477 34222 ft 453 kts 233°
2026-04-21 15:42 46.60986 11.91192 34218 ft 453 kts 233°
2026-04-21 15:43 46.57156 11.83915 34229 ft 453 kts 233°
2026-04-21 15:43 46.53348 11.76687 34230 ft 453 kts 233°
2026-04-21 15:44 46.49510 11.69428 34226 ft 453 kts 233°
2026-04-21 15:44 46.45664 11.62181 34227 ft 453 kts 233°
2026-04-21 15:45 46.41820 11.54941 34225 ft 453 kts 233°
2026-04-21 15:45 46.37975 11.47722 34224 ft 453 kts 232°
2026-04-21 15:46 46.34135 11.40560 34227 ft 453 kts 232°
2026-04-21 15:46 46.30274 11.33352 34220 ft 453 kts 232°
2026-04-21 15:47 46.26412 11.26155 34230 ft 453 kts 232°
2026-04-21 15:47 46.22543 11.18962 34229 ft 453 kts 232°
2026-04-21 15:48 46.18696 11.11832 34227 ft 453 kts 232°
2026-04-21 15:48 46.14817 11.04665 34225 ft 453 kts 232°
2026-04-21 15:49 46.10943 10.97512 34220 ft 453 kts 232°
2026-04-21 15:49 46.07051 10.90361 34226 ft 453 kts 232°
2026-04-21 15:50 46.03153 10.83234 34229 ft 453 kts 232°
2026-04-21 15:50 45.99280 10.76161 34220 ft 453 kts 232°
2026-04-21 15:51 45.95386 10.69043 34225 ft 453 kts 232°
2026-04-21 15:51 45.91484 10.61932 34224 ft 453 kts 232°
2026-04-21 15:52 45.87577 10.54847 34224 ft 453 kts 232°
2026-04-21 15:52 45.84321 10.48965 34229 ft 453 kts 232°
2026-04-21 15:53 45.80402 10.41900 34227 ft 453 kts 232°
2026-04-21 15:53 45.76485 10.34826 34223 ft 453 kts 232°
2026-04-21 15:54 45.72570 10.27767 34224 ft 453 kts 232°
2026-04-21 15:54 45.68645 10.20722 34226 ft 453 kts 232°
2026-04-21 15:55 45.64708 10.13692 34228 ft 453 kts 232°
2026-04-21 15:55 45.60768 10.06662 34220 ft 453 kts 231°
2026-04-21 15:56 45.56824 9.99652 34226 ft 453 kts 231°
2026-04-21 15:56 45.52876 9.92651 34228 ft 453 kts 231°
2026-04-21 15:57 45.48925 9.85657 34226 ft 453 kts 231°
2026-04-21 15:57 45.44996 9.78712 34220 ft 453 kts 231°
2026-04-21 15:58 45.41033 9.71732 34233 ft 453 kts 231°
2026-04-21 15:58 45.37073 9.64762 34226 ft 453 kts 231°
2026-04-21 15:59 45.33103 9.57793 34232 ft 453 kts 231°
2026-04-21 15:59 45.29132 9.50856 34227 ft 453 kts 231°
2026-04-21 16:00 45.25159 9.43931 34228 ft 453 kts 231°
2026-04-21 16:00 45.21178 9.36999 34224 ft 453 kts 231°
2026-04-21 16:01 45.17197 9.30088 34229 ft 453 kts 231°
2026-04-21 16:01 45.13211 9.23181 34229 ft 453 kts 231°
2026-04-21 16:02 45.09223 9.16291 34226 ft 453 kts 231°
2026-04-21 16:02 45.05225 9.09405 34228 ft 453 kts 231°
2026-04-21 16:03 45.01225 9.02530 34227 ft 453 kts 231°
2026-04-21 16:03 44.97221 8.95661 34228 ft 453 kts 231°
2026-04-21 16:04 44.93214 8.88809 34225 ft 453 kts 231°
2026-04-21 16:04 44.89228 8.81998 34228 ft 453 kts 231°
2026-04-21 16:05 44.85213 8.75149 34232 ft 453 kts 231°
2026-04-21 16:05 44.81191 8.68320 34228 ft 453 kts 231°
2026-04-21 16:06 44.77173 8.61500 34228 ft 453 kts 231°
2026-04-21 16:06 44.73139 8.54678 34228 ft 453 kts 230°
2026-04-21 16:07 44.69103 8.47884 34231 ft 453 kts 230°
2026-04-21 16:07 44.65086 8.41138 34224 ft 453 kts 230°
2026-04-21 16:08 44.59027 8.30968 34236 ft 453 kts 230°
2026-04-21 16:09 44.54984 8.24198 34221 ft 453 kts 230°
2026-04-21 16:09 44.50932 8.17442 34231 ft 453 kts 230°
2026-04-21 16:10 44.46876 8.10703 34227 ft 453 kts 230°
2026-04-21 16:10 44.42816 8.03950 34227 ft 453 kts 230°
2026-04-21 16:11 44.38758 7.97221 34233 ft 453 kts 230°
2026-04-21 16:11 44.34692 7.90505 34226 ft 453 kts 230°
2026-04-21 16:12 44.31307 7.84918 34225 ft 453 kts 230°
2026-04-21 16:12 44.26461 7.77199 34226 ft 453 kts 223°
2026-04-21 16:13 44.21752 7.71361 34227 ft 453 kts 221°
2026-04-21 16:13 44.17029 7.65559 34228 ft 453 kts 221°
2026-04-21 16:14 44.12605 7.59406 34225 ft 452 kts 229°
2026-04-21 16:14 44.08483 7.52794 34227 ft 452 kts 229°
2026-04-21 16:15 44.04348 7.46181 34234 ft 452 kts 229°
2026-04-21 16:15 44.00207 7.39586 34219 ft 452 kts 229°
2026-04-21 16:16 43.96064 7.32997 34232 ft 453 kts 229°
2026-04-21 16:16 43.91923 7.26422 34220 ft 453 kts 229°
2026-04-21 16:17 43.87766 7.19842 34228 ft 453 kts 229°
2026-04-21 16:17 43.83611 7.13279 34227 ft 453 kts 229°
2026-04-21 16:18 43.79456 7.06733 34232 ft 453 kts 229°
2026-04-21 16:18 43.75318 7.00230 34231 ft 453 kts 229°
2026-04-21 16:19 43.71662 6.93186 34231 ft 452 kts 243°
2026-04-21 16:19 43.69235 6.85193 34224 ft 451 kts 248°
2026-04-21 16:20 43.66864 6.77153 34226 ft 451 kts 248°
2026-04-21 16:20 43.64481 6.69127 34227 ft 452 kts 248°
2026-04-21 16:21 43.62102 6.61092 34230 ft 452 kts 248°
2026-04-21 16:21 43.59733 6.53114 34226 ft 452 kts 248°
2026-04-21 16:22 43.57338 6.45103 34235 ft 452 kts 248°
2026-04-21 16:22 43.54945 6.37098 34220 ft 452 kts 248°
2026-04-21 16:23 43.52540 6.29093 34222 ft 452 kts 248°
2026-04-21 16:23 43.50126 6.21107 34230 ft 452 kts 248°
2026-04-21 16:24 43.47703 6.13106 34282 ft 454 kts 248°
2026-04-21 16:24 43.45276 6.05113 34217 ft 452 kts 248°
2026-04-21 16:25 43.42850 5.97115 34212 ft 452 kts 248°
2026-04-21 16:25 43.40413 5.89129 34218 ft 452 kts 248°
2026-04-21 16:26 43.37968 5.81153 34219 ft 452 kts 248°
2026-04-21 16:26 43.35527 5.73194 34221 ft 451 kts 248°
2026-04-21 16:27 43.33086 5.65251 34224 ft 451 kts 247°
2026-04-21 16:27 43.30634 5.57312 34223 ft 451 kts 247°
2026-04-21 16:28 43.28174 5.49380 34218 ft 451 kts 247°
2026-04-21 16:28 43.25728 5.41499 34219 ft 451 kts 247°
2026-04-21 16:29 43.23660 5.34868 34222 ft 452 kts 247°
2026-04-21 16:29 43.20786 5.25665 34229 ft 452 kts 247°
2026-04-21 16:30 43.18305 5.17756 34227 ft 452 kts 247°
2026-04-21 16:30 43.15818 5.09851 34231 ft 452 kts 247°
2026-04-21 16:31 43.13325 5.01952 34225 ft 452 kts 247°
2026-04-21 16:31 43.10823 4.94052 34227 ft 452 kts 247°
2026-04-21 16:32 43.08337 4.86218 34229 ft 452 kts 247°
2026-04-21 16:32 43.05485 4.78579 34224 ft 452 kts 235°
2026-04-21 16:33 43.01196 4.72325 34225 ft 452 kts 221°
2026-04-21 16:33 42.96477 4.66634 34222 ft 453 kts 221°
2026-04-21 16:34 42.91757 4.60933 34225 ft 453 kts 221°
2026-04-21 16:34 42.87030 4.55257 34227 ft 453 kts 221°
2026-04-21 16:35 42.83097 4.50545 34220 ft 453 kts 221°
2026-04-21 16:35 42.78366 4.44871 34226 ft 453 kts 221°
2026-04-21 16:36 42.73640 4.39200 34236 ft 453 kts 221°
2026-04-21 16:36 42.68902 4.33545 34232 ft 453 kts 221°
2026-04-21 16:37 42.64155 4.27889 34230 ft 453 kts 221°
2026-04-21 16:37 42.59453 4.22279 34227 ft 453 kts 221°
2026-04-21 16:38 42.54681 4.16604 34230 ft 453 kts 221°
2026-04-21 16:38 42.49959 4.11022 34223 ft 453 kts 221°
2026-04-21 16:39 42.45208 4.05419 34231 ft 453 kts 221°
2026-04-21 16:39 42.40456 3.99812 34230 ft 453 kts 221°
2026-04-21 16:40 42.35700 3.94221 34228 ft 453 kts 221°
2026-04-21 16:40 42.30936 3.88624 34227 ft 453 kts 221°
2026-04-21 16:41 42.26265 3.82915 34227 ft 453 kts 228°
2026-04-21 16:41 42.22495 3.76126 34226 ft 452 kts 235°
2026-04-21 16:42 42.18859 3.69201 34224 ft 452 kts 235°
2026-04-21 16:42 42.15204 3.62294 34236 ft 452 kts 235°
2026-04-21 16:43 42.11547 3.55387 34229 ft 452 kts 234°
2026-04-21 16:43 42.07908 3.48536 34232 ft 452 kts 234°
2026-04-21 16:44 42.04246 3.41646 34226 ft 452 kts 234°
2026-04-21 16:44 42.00575 3.34757 34226 ft 452 kts 234°
2026-04-21 16:45 41.96899 3.27889 34226 ft 452 kts 234°
2026-04-21 16:45 41.93226 3.21022 34231 ft 452 kts 234°
2026-04-21 16:46 41.89555 3.14162 34231 ft 452 kts 234°
2026-04-21 16:46 41.85872 3.07316 34230 ft 452 kts 234°
2026-04-21 16:47 41.82178 3.00467 34224 ft 452 kts 234°
2026-04-21 16:47 41.78485 2.93640 34231 ft 452 kts 234°
2026-04-21 16:47 41.76472 2.90408 34235 ft 452 kts 222°
2026-04-21 16:48 41.73891 2.88034 34227 ft 452 kts 205°
2026-04-21 16:48 41.70945 2.86774 34219 ft 451 kts 188°
2026-04-21 16:48 41.67779 2.86715 34212 ft 450 kts 171°
2026-04-21 16:48 41.64781 2.87882 34213 ft 449 kts 155°
2026-04-21 16:49 41.61976 2.89737 34199 ft 450 kts 152°
2026-04-21 16:49 41.56581 2.93890 34196 ft 451 kts 149°
2026-04-21 16:49 41.53713 2.95563 34195 ft 451 kts 165°
2026-04-21 16:50 41.50602 2.96134 34196 ft 451 kts 181°
2026-04-21 16:50 41.47498 2.95567 34198 ft 450 kts 197°
2026-04-21 16:50 41.44636 2.93916 34197 ft 449 kts 212°
2026-04-21 16:50 41.42216 2.91305 34195 ft 448 kts 228°
2026-04-21 16:51 41.40415 2.87933 34194 ft 447 kts 244°
2026-04-21 16:51 41.39352 2.84053 34193 ft 446 kts 259°
2026-04-21 16:51 41.38845 2.79972 34194 ft 447 kts 262°
2026-04-21 16:52 41.37917 2.71819 34196 ft 449 kts 262°
2026-04-21 16:52 41.36975 2.63593 34201 ft 450 kts 262°
2026-04-21 16:53 41.36017 2.55357 34211 ft 450 kts 261°
2026-04-21 16:53 41.35050 2.47116 34226 ft 451 kts 261°
2026-04-21 16:54 41.34076 2.38868 34214 ft 451 kts 261°
2026-04-21 16:54 41.33102 2.30617 34218 ft 451 kts 261°
2026-04-21 16:55 41.32120 2.22377 34223 ft 451 kts 261°
2026-04-21 16:55 41.31133 2.14134 34234 ft 451 kts 261°
2026-04-21 16:56 41.30145 2.05892 34226 ft 451 kts 262°
2026-04-21 16:56 41.29206 1.97641 34226 ft 451 kts 262°
2026-04-21 16:57 41.28274 1.89396 34230 ft 451 kts 262°
2026-04-21 16:57 41.27315 1.81144 34234 ft 451 kts 261°
2026-04-21 16:58 41.26347 1.72899 34227 ft 451 kts 261°
2026-04-21 16:58 41.25384 1.64667 34227 ft 451 kts 262°
2026-04-21 16:59 41.24420 1.56477 34230 ft 451 kts 261°
2026-04-21 16:59 41.23437 1.48226 34227 ft 451 kts 261°
2026-04-21 17:00 41.22445 1.39998 34227 ft 451 kts 261°
2026-04-21 17:00 41.21626 1.33153 34227 ft 451 kts 261°
2026-04-21 17:01 41.20467 1.23537 34227 ft 451 kts 261°
2026-04-21 17:01 41.19465 1.15365 34230 ft 451 kts 261°
2026-04-21 17:02 41.18456 1.07139 34227 ft 451 kts 261°
2026-04-21 17:02 41.17445 0.98918 34227 ft 451 kts 261°
2026-04-21 17:03 41.16426 0.90700 34229 ft 451 kts 261°
2026-04-21 17:03 41.15402 0.82487 34232 ft 451 kts 261°
2026-04-21 17:04 41.14370 0.74262 34227 ft 451 kts 261°
2026-04-21 17:04 41.13328 0.66056 34227 ft 451 kts 261°
2026-04-21 17:05 41.12281 0.57834 34227 ft 451 kts 261°
2026-04-21 17:05 41.11239 0.49780 34228 ft 451 kts 261°
2026-04-21 17:06 41.10187 0.41583 34207 ft 449 kts 263°
2026-04-21 17:06 41.09124 0.33485 34219 ft 445 kts 264°
2026-04-21 17:07 41.08263 0.26839 34223 ft 444 kts 264°
2026-04-21 17:07 41.07046 0.17397 34237 ft 444 kts 264°
2026-04-21 17:08 41.05988 0.09342 34229 ft 444 kts 264°
2026-04-21 17:08 41.04942 0.01338 34235 ft 444 kts 264°
2026-04-21 17:09 41.03325 -0.10743 34249 ft 443 kts 263°
2026-04-21 17:09 41.02240 -0.18759 34240 ft 442 kts 263°
2026-04-21 17:10 41.01163 -0.26759 34249 ft 441 kts 262°
2026-04-21 17:10 40.99311 -0.34532 34252 ft 444 kts 253°
2026-04-21 17:11 40.97238 -0.42173 34253 ft 443 kts 253°
2026-04-21 17:11 40.95158 -0.49849 34254 ft 443 kts 253°
2026-04-21 17:12 40.93070 -0.57518 34253 ft 443 kts 253°
2026-04-21 17:12 40.90970 -0.65233 34256 ft 443 kts 253°
2026-04-21 17:13 40.88870 -0.72901 34258 ft 443 kts 253°
2026-04-21 17:13 40.86785 -0.80506 34261 ft 443 kts 253°
2026-04-21 17:14 40.84681 -0.88157 34264 ft 443 kts 253°
2026-04-21 17:14 40.82559 -0.95792 34268 ft 443 kts 253°
2026-04-21 17:15 40.80435 -1.03437 34268 ft 443 kts 253°
2026-04-21 17:15 40.78305 -1.11072 34268 ft 443 kts 253°
2026-04-21 17:16 40.76174 -1.18692 34269 ft 443 kts 252°
2026-04-21 17:16 40.74046 -1.26309 34270 ft 442 kts 253°
2026-04-21 17:17 40.71918 -1.33921 34270 ft 442 kts 253°
2026-04-21 17:17 40.69785 -1.41514 34269 ft 442 kts 252°
2026-04-21 17:18 40.67999 -1.47824 34271 ft 442 kts 252°
2026-04-21 17:18 40.65496 -1.56649 34278 ft 441 kts 252°
2026-04-21 17:19 40.63707 -1.62940 34276 ft 441 kts 252°
2026-04-21 17:19 40.61553 -1.70513 34279 ft 441 kts 252°
2026-04-21 17:20 40.59396 -1.78079 34284 ft 441 kts 252°
2026-04-21 17:20 40.57237 -1.85629 34287 ft 441 kts 252°
2026-04-21 17:21 40.55067 -1.93178 34284 ft 441 kts 252°
2026-04-21 17:21 40.52895 -2.00725 34284 ft 441 kts 252°
2026-04-21 17:22 40.50722 -2.08255 34280 ft 440 kts 252°
2026-04-21 17:22 40.48538 -2.15773 34281 ft 440 kts 252°
2026-04-21 17:23 40.46365 -2.23235 34280 ft 440 kts 252°
2026-04-21 17:23 40.44177 -2.30750 34279 ft 440 kts 252°
2026-04-21 17:24 40.41980 -2.38251 34276 ft 440 kts 252°
2026-04-21 17:24 40.39775 -2.45748 34275 ft 440 kts 252°
2026-04-21 17:25 40.37569 -2.53241 34279 ft 440 kts 252°
2026-04-21 17:25 40.35822 -2.60891 34278 ft 438 kts 257°
2026-04-21 17:26 40.34177 -2.68530 34276 ft 437 kts 257°
2026-04-21 17:26 40.32514 -2.76195 34274 ft 437 kts 257°
2026-04-21 17:27 40.30843 -2.83853 34273 ft 437 kts 257°
2026-04-21 17:27 40.29167 -2.91503 34274 ft 437 kts 257°
2026-04-21 17:28 40.27487 -2.99147 34273 ft 436 kts 257°
2026-04-21 17:28 40.25810 -3.06782 34272 ft 436 kts 257°
2026-04-21 17:29 40.24128 -3.14407 34270 ft 436 kts 256°
2026-04-21 17:29 40.22427 -3.22018 34266 ft 435 kts 256°
2026-04-21 17:30 40.20724 -3.29610 34263 ft 434 kts 256°
2026-04-21 17:30 40.19036 -3.37189 34260 ft 434 kts 256°
2026-04-21 17:31 40.17358 -3.44710 34264 ft 434 kts 256°
2026-04-21 17:31 40.15659 -3.52287 34263 ft 433 kts 256°
2026-04-21 17:32 40.13958 -3.59839 34266 ft 433 kts 256°
2026-04-21 17:32 40.12247 -3.67384 34267 ft 432 kts 256°
2026-04-21 17:33 40.10538 -3.74898 34266 ft 432 kts 256°
2026-04-21 17:33 40.08820 -3.82416 34267 ft 431 kts 256°
2026-04-21 17:34 40.07108 -3.89917 34266 ft 431 kts 256°
2026-04-21 17:34 40.05399 -3.97357 34267 ft 431 kts 256°
2026-04-21 17:35 40.03671 -4.04842 34263 ft 430 kts 256°
2026-04-21 17:35 40.01943 -4.12320 34263 ft 430 kts 256°
2026-04-21 17:36 40.00208 -4.19808 34262 ft 430 kts 256°
2026-04-21 17:36 39.98468 -4.27277 34259 ft 430 kts 256°
2026-04-21 17:37 39.96733 -4.34698 34259 ft 430 kts 256°
2026-04-21 17:37 39.95145 -4.42214 34264 ft 429 kts 258°
2026-04-21 17:38 39.93679 -4.49750 34264 ft 429 kts 258°
2026-04-21 17:38 39.92187 -4.57276 34263 ft 428 kts 258°
2026-04-21 17:39 39.90660 -4.64780 34263 ft 428 kts 257°
2026-04-21 17:39 39.89115 -4.72265 34266 ft 428 kts 257°
2026-04-21 17:40 39.87567 -4.79749 34265 ft 428 kts 257°
2026-04-21 17:40 39.86021 -4.87227 34265 ft 427 kts 257°
2026-04-21 17:41 39.84484 -4.94641 34267 ft 427 kts 257°
2026-04-21 17:41 39.82933 -5.02100 34265 ft 426 kts 257°
2026-04-21 17:42 39.81376 -5.09544 34267 ft 426 kts 257°
2026-04-21 17:42 39.79813 -5.16978 34265 ft 425 kts 257°
2026-04-21 17:43 39.78254 -5.24395 34264 ft 425 kts 257°
2026-04-21 17:43 39.76689 -5.31814 34263 ft 425 kts 257°
2026-04-21 17:44 39.75131 -5.39184 34263 ft 425 kts 257°
2026-04-21 17:44 39.73565 -5.46581 34261 ft 425 kts 257°
2026-04-21 17:45 39.71989 -5.53978 34259 ft 424 kts 257°
2026-04-21 17:45 39.70405 -5.61353 34258 ft 424 kts 256°
2026-04-21 17:46 39.68820 -5.68717 34257 ft 423 kts 256°
2026-04-21 17:46 39.67230 -5.76078 34253 ft 423 kts 256°
2026-04-21 17:47 39.65645 -5.83424 34257 ft 423 kts 256°
2026-04-21 17:47 39.64051 -5.90779 34254 ft 423 kts 256°
2026-04-21 17:48 39.62459 -5.98117 34250 ft 423 kts 256°
2026-04-21 17:48 39.60853 -6.05451 34250 ft 423 kts 256°
2026-04-21 17:49 39.59252 -6.12731 34247 ft 423 kts 256°
2026-04-21 17:49 39.57630 -6.20051 34240 ft 422 kts 256°
2026-04-21 17:50 39.56011 -6.27372 34235 ft 423 kts 256°
2026-04-21 17:50 39.54390 -6.34698 34242 ft 423 kts 256°
2026-04-21 17:51 39.52762 -6.42019 34245 ft 423 kts 254°
2026-04-21 17:51 39.50341 -6.48999 34236 ft 426 kts 246°
2026-04-21 17:52 39.47707 -6.55880 34241 ft 427 kts 246°
2026-04-21 17:52 39.45072 -6.62766 34236 ft 427 kts 246°
2026-04-21 17:53 39.42444 -6.69596 34234 ft 427 kts 246°
2026-04-21 17:53 39.39772 -6.76464 34239 ft 427 kts 245°
2026-04-21 17:54 39.37068 -6.83317 34233 ft 427 kts 245°
2026-04-21 17:54 39.34363 -6.90153 34240 ft 427 kts 245°
2026-04-21 17:55 39.31658 -6.96991 34233 ft 427 kts 245°
2026-04-21 17:55 39.28953 -7.03829 34233 ft 427 kts 245°
2026-04-21 17:56 39.26241 -7.10668 34234 ft 428 kts 245°
2026-04-21 17:56 39.23520 -7.17497 34231 ft 427 kts 245°
2026-04-21 17:57 39.20802 -7.24322 34186 ft 427 kts 245°
2026-04-21 17:57 39.19473 -7.27657 33140 ft 422 kts 245°
2026-04-21 17:57 39.18113 -7.31070 31245 ft 434 kts 245°
2026-04-21 17:58 39.16842 -7.34617 29982 ft 435 kts 253°
2026-04-21 17:58 39.16259 -7.38374 29684 ft 421 kts 263°
2026-04-21 17:58 39.15880 -7.42043 29588 ft 408 kts 263°
2026-04-21 17:58 39.15487 -7.45703 29406 ft 416 kts 263°
2026-04-21 17:59 39.15086 -7.49422 28385 ft 423 kts 263°
2026-04-21 17:59 39.14684 -7.53199 27533 ft 424 kts 263°
2026-04-21 17:59 39.14291 -7.56948 26863 ft 420 kts 263°
2026-04-21 17:59 39.13906 -7.60675 26133 ft 418 kts 263°
2026-04-21 18:00 39.13525 -7.64376 25429 ft 415 kts 262°
2026-04-21 18:00 39.13147 -7.68049 24730 ft 412 kts 262°
2026-04-21 18:00 39.12768 -7.71700 24040 ft 409 kts 262°
2026-04-21 18:00 39.12391 -7.75317 23372 ft 406 kts 262°
2026-04-21 18:01 39.12014 -7.78905 22721 ft 403 kts 262°
2026-04-21 18:01 39.11635 -7.82467 22085 ft 400 kts 262°
2026-04-21 18:01 39.11259 -7.85995 21486 ft 396 kts 262°
2026-04-21 18:01 39.10891 -7.89447 20906 ft 392 kts 262°
2026-04-21 18:02 39.10642 -7.91783 20531 ft 389 kts 262°
2026-04-21 18:02 39.10158 -7.96323 19810 ft 383 kts 262°
2026-04-21 18:02 39.09798 -7.99699 19287 ft 379 kts 262°
2026-04-21 18:02 39.09442 -8.03036 18788 ft 374 kts 262°
2026-04-21 18:03 39.09089 -8.06336 18296 ft 370 kts 262°
2026-04-21 18:03 39.08738 -8.09594 17808 ft 366 kts 262°
2026-04-21 18:03 39.08390 -8.12821 17322 ft 362 kts 262°
2026-04-21 18:03 39.08043 -8.16017 16828 ft 359 kts 262°
2026-04-21 18:04 39.07698 -8.19187 16326 ft 357 kts 262°
2026-04-21 18:04 39.07356 -8.22343 15813 ft 355 kts 262°
2026-04-21 18:04 39.07014 -8.25476 15292 ft 353 kts 262°
2026-04-21 18:04 39.06670 -8.28602 14758 ft 352 kts 262°
2026-04-21 18:05 39.06327 -8.31712 14220 ft 350 kts 262°
2026-04-21 18:05 39.05987 -8.34812 13664 ft 349 kts 262°
2026-04-21 18:05 39.05763 -8.36860 13294 ft 348 kts 262°
2026-04-21 18:05 39.05423 -8.39945 12722 ft 347 kts 261°
2026-04-21 18:06 39.05084 -8.43008 12171 ft 345 kts 261°
2026-04-21 18:06 39.04634 -8.47045 11383 ft 342 kts 261°
2026-04-21 18:06 39.04409 -8.49056 11065 ft 339 kts 261°
2026-04-21 18:06 39.04080 -8.51991 10931 ft 325 kts 261°
2026-04-21 18:07 39.03766 -8.54806 10806 ft 312 kts 261°
2026-04-21 18:07 39.03526 -8.57545 10475 ft 307 kts 268°
2026-04-21 18:07 39.03406 -8.60296 9810 ft 312 kts 263°
2026-04-21 18:07 39.03094 -8.63082 9199 ft 316 kts 260°
2026-04-21 18:08 39.02707 -8.65869 8677 ft 316 kts 259°
2026-04-21 18:08 39.02311 -8.68646 8191 ft 315 kts 259°
2026-04-21 18:08 39.01938 -8.71408 7727 ft 312 kts 260°
2026-04-21 18:08 39.01592 -8.74156 7242 ft 311 kts 261°
2026-04-21 18:09 39.01264 -8.76894 6756 ft 308 kts 261°
2026-04-21 18:09 39.00956 -8.79569 6427 ft 301 kts 261°
2026-04-21 18:09 39.00661 -8.82174 6312 ft 287 kts 261°
2026-04-21 18:09 39.00385 -8.84618 6190 ft 264 kts 261°
2026-04-21 18:10 39.00131 -8.86857 6062 ft 242 kts 261°
2026-04-21 18:10 38.99897 -8.88909 5879 ft 225 kts 261°
2026-04-21 18:10 38.99675 -8.90843 5713 ft 212 kts 261°
2026-04-21 18:10 38.99462 -8.92661 5538 ft 201 kts 261°
2026-04-21 18:11 38.99259 -8.94398 5298 ft 191 kts 261°
2026-04-21 18:11 38.99025 -8.96095 4817 ft 193 kts 252°
2026-04-21 18:11 38.98543 -8.97667 4271 ft 191 kts 248°
2026-04-21 18:11 38.98054 -8.99209 4358 ft 188 kts 248°
2026-04-21 18:12 38.97556 -9.00791 4413 ft 193 kts 248°
2026-04-21 18:12 38.97039 -9.02396 4397 ft 196 kts 244°
2026-04-21 18:12 38.96201 -9.03757 4052 ft 195 kts 218°
2026-04-21 18:12 38.94998 -9.04541 3730 ft 195 kts 202°
2026-04-21 18:13 38.93765 -9.05204 3438 ft 187 kts 202°
2026-04-21 18:13 38.92620 -9.05821 3198 ft 169 kts 202°
2026-04-21 18:13 38.91577 -9.06382 2970 ft 156 kts 202°
2026-04-21 18:13 38.90598 -9.06909 2766 ft 149 kts 201°
2026-04-21 18:14 38.88754 -9.07897 2385 ft 138 kts 200°
2026-04-21 18:14 38.87876 -9.08369 2198 ft 136 kts 200°
2026-04-21 18:14 38.87016 -9.08831 2020 ft 135 kts 201°
2026-04-21 18:15 38.86151 -9.09295 1842 ft 134 kts 201°
2026-04-21 18:15 38.85297 -9.09753 1667 ft 133 kts 202°
2026-04-21 18:15 38.84431 -9.10217 1470 ft 137 kts 203°
2026-04-21 18:15 38.83548 -9.10691 1303 ft 138 kts 203°
2026-04-21 18:16 38.82656 -9.11170 1109 ft 138 kts 203°
2026-04-21 18:16 38.81773 -9.11644 858 ft 136 kts 203°
2026-04-21 18:16 38.80899 -9.12111 682 ft 136 kts 203°
2026-04-21 18:16 38.80025 -9.12578 532 ft 136 kts 203°
2026-04-21 18:17 38.79158 -9.13045 388 ft 134 kts 203°
2026-04-21 18:17 38.78325 -9.13500 371 ft 123 kts 199°
2026-04-21 18:17 38.77778 -9.13766 362 ft 43 kts 186°
2026-04-21 18:17 38.77572 -9.13756 362 ft 21 kts 179°
2026-04-21 18:18 38.77425 -9.13752 357 ft 24 kts 184°
2026-04-21 18:18 38.77314 -9.13795 354 ft 11 kts 186°
2026-04-21 18:18 38.77262 -9.13734 352 ft 14 kts 99°
2026-04-21 18:18 38.77287 -9.13555 351 ft 22 kts 77°
2026-04-21 18:19 38.77316 -9.13374 342 ft 14 kts 78°
2026-04-21 18:19 38.77318 -9.13269 339 ft 11 kts 126°
2026-04-21 18:19 38.77285 -9.13226 336 ft 6 kts 101°
2026-04-21 18:19 38.77292 -9.13188 337 ft 1 kts 77°
2026-04-21 18:20 38.77295 -9.13173 337 ft 2 kts 77°
2026-04-21 18:20 38.77296 -9.13165 336 ft 1 kts 78°
2026-04-21 18:20 38.77297 -9.13163 337 ft 0 kts 78°